Jefferson, NC

2:50 AM EST on January 16, 2018 (GMT -0500)
Ashe County

Weather History for KGEV - October, 2010

Change the Weather History Date:

Monday, October 4, 2010

  Actual Average Record
Temperature  
Mean Temperature 47 °F -  
Max Temperature 53 °F 69 °F 82 °F (1986)
Min Temperature 41 °F 42 °F 22 °F (1974)
Degree Days  
Heating Degree Days 18    
Moisture  
Dew Point 34 °F    
Average Humidity 67    
Maximum Humidity 87    
Minimum Humidity 44    
Precipitation  
Precipitation 0.00 in - - ()
Sea Level Pressure  
Sea Level Pressure 30.14 in    
Wind  
Wind Speed 6 mph (NW)    
Max Wind Speed 12 mph    
Max Gust Speed 21 mph    
Visibility 10 miles    
Events      
Averages and records for this station are not official NWS values.
T = Trace of Precipitation, MM = Missing Value Source: NWS Daily Summary

Daily Weather History Graph

Daily Weather History Graph

Search for Another Location

Airport or City:

Trip Planner

Search our weather history database for the weather conditions in past years. The results will help you decide how hot, cold, wet, or windy it might be!

Date:

Astronomy

Oct. 04, 2010 Rise Set
Actual Time 7:23 AM EDT 7:04 PM EDT
Civil Twilight 6:57 AM EDT 7:30 PM EDT
Nautical Twilight 6:27 AM EDT 8:00 PM EDT
Astronomical Twilight 5:57 AM EDT 8:30 PM EDT
Moon 3:36 AM EDT (10/4) 4:57 PM EDT (10/4)
Length of Visible Light 12h 32m
Length of Day
11h 41m
Waning Crescent, 14% of the Moon is Illuminated
Oct 4
Waning Crescent
Oct 7
New
Oct 14
First Quarter
Oct 22
Full
Oct 30
Last Quarter

Hourly Weather History & Observations

Time (EDT) Temp. Windchill Dew Point Humidity Pressure Visibility Wind Dir Wind Speed Gust Speed Precip Events Conditions
12:00 AM 42.8 °F 41.1 °F 37.4 °F 81% 30.12 in 10.0 mi North 3.5 mph - N/A   Mostly Cloudy
12:20 AM 41.0 °F - 37.4 °F 87% 30.12 in 10.0 mi Calm Calm - N/A   Scattered Clouds
12:42 AM 41.0 °F 39.0 °F 37.4 °F 87% 30.12 in 10.0 mi NNE 3.5 mph - N/A   Mostly Cloudy
1:00 AM 42.8 °F 38.6 °F 37.4 °F 81% 30.13 in 10.0 mi WNW 6.9 mph - N/A   Mostly Cloudy
1:21 AM 42.8 °F 39.3 °F 35.6 °F 76% 30.12 in 10.0 mi NNW 5.8 mph - N/A   Overcast
1:40 AM 42.8 °F 37.5 °F 37.4 °F 81% 30.13 in 10.0 mi NW 9.2 mph - N/A   Overcast
2:00 AM 42.8 °F 38.6 °F 37.4 °F 81% 30.13 in 10.0 mi NNW 6.9 mph - N/A   Overcast
2:20 AM 42.8 °F 38.6 °F 35.6 °F 76% 30.12 in 10.0 mi North 6.9 mph - N/A   Overcast
2:40 AM 42.8 °F 38.0 °F 37.4 °F 81% 30.13 in 10.0 mi NNW 8.1 mph - N/A   Overcast
3:01 AM 42.8 °F 38.6 °F 35.6 °F 76% 30.11 in 10.0 mi North 6.9 mph - N/A   Overcast
3:20 AM 42.8 °F 37.5 °F 35.6 °F 76% 30.11 in 10.0 mi NW 9.2 mph - N/A   Overcast
3:40 AM 42.8 °F 39.3 °F 35.6 °F 76% 30.11 in 10.0 mi WNW 5.8 mph - N/A   Mostly Cloudy
4:00 AM 41.0 °F 38.0 °F 35.6 °F 81% 30.10 in 10.0 mi North 4.6 mph - N/A   Scattered Clouds
4:20 AM 41.0 °F 37.1 °F 35.6 °F 81% 30.10 in 10.0 mi NNW 5.8 mph - N/A   Scattered Clouds
4:40 AM 41.0 °F 36.4 °F 35.6 °F 81% 30.11 in 10.0 mi NNW 6.9 mph - N/A   Clear
5:00 AM 41.0 °F 34.7 °F 35.6 °F 81% 30.11 in 10.0 mi NW 10.4 mph - N/A   Clear
5:20 AM 41.0 °F 37.1 °F 35.6 °F 81% 30.11 in 10.0 mi NNW 5.8 mph - N/A   Clear
5:40 AM 41.0 °F 37.1 °F 33.8 °F 76% 30.11 in 10.0 mi NNW 5.8 mph - N/A   Scattered Clouds
6:01 AM 41.0 °F 38.0 °F 33.8 °F 76% 30.12 in 10.0 mi NW 4.6 mph - N/A   Scattered Clouds
6:20 AM 41.0 °F 38.0 °F 33.8 °F 76% 30.13 in 10.0 mi NW 4.6 mph - N/A   Scattered Clouds
6:40 AM 41.0 °F 39.0 °F 33.8 °F 76% 30.13 in 10.0 mi NW 3.5 mph - N/A   Mostly Cloudy
7:00 AM 41.0 °F 37.1 °F 33.8 °F 76% 30.14 in 10.0 mi WNW 5.8 mph - N/A   Overcast
7:20 AM 41.0 °F 38.0 °F 33.8 °F 76% 30.13 in 10.0 mi NW 4.6 mph - N/A   Mostly Cloudy
7:40 AM 41.0 °F 39.0 °F 33.8 °F 76% 30.14 in 10.0 mi WNW 3.5 mph - N/A   Mostly Cloudy
8:00 AM 41.0 °F 36.4 °F 33.8 °F 76% 30.15 in 10.0 mi WNW 6.9 mph - N/A   Mostly Cloudy
8:20 AM 42.8 °F 38.6 °F 33.8 °F 70% 30.15 in 10.0 mi NW 6.9 mph - N/A   Overcast
8:40 AM 42.8 °F 37.0 °F 33.8 °F 70% 30.16 in 10.0 mi NW 10.4 mph - N/A   Overcast
9:00 AM 42.8 °F 37.5 °F 33.8 °F 70% 30.16 in 10.0 mi NNW 9.2 mph - N/A   Mostly Cloudy
9:20 AM 44.6 °F 39.7 °F 33.8 °F 66% 30.16 in 10.0 mi NNW 9.2 mph - N/A   Mostly Cloudy
9:40 AM 44.6 °F 43.1 °F 33.8 °F 66% 30.17 in 10.0 mi NNW 3.5 mph - N/A   Mostly Cloudy
10:00 AM 44.6 °F 42.2 °F 33.8 °F 66% 30.18 in 10.0 mi NNW 4.6 mph - N/A   Overcast
10:20 AM 44.6 °F 42.2 °F 33.8 °F 66% 30.18 in 10.0 mi NNW 4.6 mph - N/A   Overcast
10:43 AM 46.4 °F 44.3 °F 33.8 °F 62% 30.18 in 10.0 mi NNW 4.6 mph - N/A   Mostly Cloudy
11:00 AM 46.4 °F 44.3 °F 33.8 °F 62% 30.18 in 10.0 mi NNW 4.6 mph - N/A   Overcast
11:20 AM 46.4 °F 43.5 °F 33.8 °F 62% 30.18 in 10.0 mi NNW 5.8 mph - N/A   Overcast
11:40 AM 46.4 °F 44.3 °F 35.6 °F 66% 30.18 in 10.0 mi North 4.6 mph - N/A   Overcast
12:02 PM 48.2 °F - 35.6 °F 62% 30.17 in 10.0 mi North 5.8 mph - N/A   Mostly Cloudy
12:20 PM 50.0 °F - 35.6 °F 58% 30.17 in 10.0 mi ENE 3.5 mph - N/A   Scattered Clouds
12:40 PM 48.2 °F - 35.6 °F 62% 30.17 in 10.0 mi North 3.5 mph - N/A   Mostly Cloudy
1:00 PM 50.0 °F - 35.6 °F 58% 30.17 in 10.0 mi East 3.5 mph - N/A   Mostly Cloudy
1:20 PM 50.0 °F - 33.8 °F 54% 30.16 in 10.0 mi North 4.6 mph - N/A   Mostly Cloudy
1:40 PM 50.0 °F - 33.8 °F 54% 30.16 in 10.0 mi NNW 4.6 mph - N/A   Overcast
2:00 PM 51.8 °F - 33.8 °F 50% 30.15 in 10.0 mi NW 4.6 mph - N/A   Overcast
2:22 PM 51.8 °F - 32.0 °F 47% 30.15 in 10.0 mi West 6.9 mph - N/A   Overcast
2:40 PM 51.8 °F - 32.0 °F 47% 30.14 in 10.0 mi WSW 5.8 mph - N/A   Mostly Cloudy
3:00 PM 51.8 °F - 32.0 °F 47% 30.14 in 10.0 mi West 11.5 mph - N/A   Scattered Clouds
3:21 PM 53.6 °F - 32.0 °F 44% 30.14 in 10.0 mi West 9.2 mph 20.7 mph N/A   Unknown
3:41 PM 51.8 °F - 32.0 °F 47% 30.14 in 10.0 mi West 10.4 mph - N/A   Scattered Clouds
4:01 PM 51.8 °F - 30.2 °F 44% 30.14 in 10.0 mi NW 5.8 mph - N/A   Scattered Clouds
4:21 PM 50.0 °F - 32.0 °F 50% 30.14 in 10.0 mi NW 5.8 mph - N/A   Overcast
4:41 PM 51.8 °F - 32.0 °F 47% 30.14 in 10.0 mi NW 6.9 mph - N/A   Scattered Clouds
5:01 PM 50.0 °F - 32.0 °F 50% 30.15 in 10.0 mi WNW 9.2 mph - N/A   Mostly Cloudy
5:21 PM 51.8 °F - 30.2 °F 44% 30.15 in 10.0 mi WNW 8.1 mph - N/A   Overcast
5:41 PM 51.8 °F - 30.2 °F 44% 30.16 in 10.0 mi WNW 6.9 mph - N/A   Scattered Clouds
6:01 PM 50.0 °F - 32.0 °F 50% 30.16 in 10.0 mi NW 9.2 mph - N/A   Scattered Clouds
6:21 PM 50.0 °F - 32.0 °F 50% 30.16 in 10.0 mi NW 6.9 mph - N/A   Scattered Clouds
6:41 PM 48.2 °F - 33.8 °F 58% 30.16 in 10.0 mi NW 10.4 mph 16.1 mph N/A   Clear
7:01 PM 46.4 °F 40.7 °F 33.8 °F 62% 30.17 in 10.0 mi NW 12.7 mph 17.3 mph N/A   Clear
7:21 PM 46.4 °F 41.9 °F 35.6 °F 66% 30.17 in 10.0 mi NW 9.2 mph - N/A   Clear
7:41 PM 44.6 °F 41.4 °F 35.6 °F 71% 30.18 in 10.0 mi NW 5.8 mph - N/A   Clear
8:01 PM 44.6 °F 39.2 °F 35.6 °F 71% 30.18 in 10.0 mi NW 10.4 mph - N/A   Clear
8:21 PM 44.6 °F 40.2 °F 35.6 °F 71% 30.18 in 10.0 mi NNW 8.1 mph - N/A   Clear
8:41 PM 44.6 °F 40.2 °F 37.4 °F 76% 30.19 in 10.0 mi NW 8.1 mph - N/A   Scattered Clouds
9:01 PM 44.6 °F 40.2 °F 37.4 °F 76% 30.19 in 10.0 mi NNW 8.1 mph - N/A   Clear
9:21 PM 44.6 °F 41.4 °F 37.4 °F 76% 30.20 in 10.0 mi NW 5.8 mph - N/A   Clear
9:41 PM 44.6 °F 40.7 °F 37.4 °F 76% 30.20 in 10.0 mi NW 6.9 mph - N/A   Clear
10:02 PM 44.6 °F 40.7 °F 35.6 °F 71% 30.21 in 10.0 mi NW 6.9 mph - N/A   Clear
10:21 PM 42.8 °F 40.1 °F 37.4 °F 81% 30.20 in 10.0 mi NW 4.6 mph - N/A   Scattered Clouds
10:41 PM 42.8 °F 38.0 °F 37.4 °F 81% 30.20 in 10.0 mi NW 8.1 mph - N/A   Scattered Clouds
11:01 PM 42.8 °F 38.0 °F 37.4 °F 81% 30.20 in 10.0 mi NW 8.1 mph - N/A   Clear
11:21 PM 42.8 °F 37.5 °F 37.4 °F 81% 30.20 in 10.0 mi NW 9.2 mph 16.1 mph N/A   Clear
11:41 PM 42.8 °F 37.0 °F 37.4 °F 81% 30.20 in 10.0 mi NW 10.4 mph 17.3 mph N/A   Scattered Clouds